Location: Amsterdam
(30.7274°N, 84.4357°W)
Time: 13:03:09
(UTC+00:00)

Vanguard 2 Rocket - Pass Details

Date: 19 February 2026
Orbit: 553 x 3286 km, 32.9° (Epoch: 13 March)

Event Time Altitude Azimuth Distance (km) Brightness Sun altitude
Rises 00:28:16 0° 285° (WNW) 5,258 12.2 -13.6°
Reaches altitude 10° 00:32:52 10° 276° (W) 3,755 11.4 -14.6°
Maximum altitude 00:40:15 29° 221° (SW) 1,861 8.9 -16.1°
Drops below altitude 10° 00:45:06 10° 161° (SSE) 2,397 8.9 -17.2°
Enters shadow 00:46:51 - 151° (SSE) 2,925 9.3 -17.6°
